Regional Weather Roundup
Issued by NWS

Home | Current Version | Previous Version | Graphics & Text | Print | Product List | Glossary On
Versions: 1 2 3 4 5 6 7 8 9 10 11 12 13 14 15 16 17 18 19 20 21 22 23 24 25 26 27 28 29 30 31 32 33 34 35 36 37 38 39 40 41 42 43 44 45 46 47 48 49 50
000
ASUS43 KIND 031659
RWRIN

WEATHER ROUNDUP FOR INDIANA
NATIONAL WEATHER SERVICE INDIANAPOLIS IN
100 PM EDT THU SEP 03 2015

NOTE: "FAIR" INDICATES FEW OR NO CLOUDS BELOW 12,000 FEET WITH NO
SIGNIFICANT WEATHER AND/OR OBSTRUCTIONS TO VISIBILITY.

* - STATION DOES NOT REPORT WEATHER SUCH AS PRECIPITATION OR FOG.

+ - STATION NOT QUALITY CONTROLLED BY THE NATIONAL WEATHER SERVICE.
    USE DATA WITH CAUTION...ESPECIALLY DEWPOINT AND RELATIVE
    HUMIDITY OBSERVATIONS.

INZ001>003-010>013-019-020-031800-
NORTHWEST INDIANA

CITY           SKY/WX    TMP DP  RH WIND       PRES   REMARKS
GARY /AIRPORT/ MOSUNNY   88  64  45 SW10      29.95F
KNOX *+        SUNNY     86  66  51 SW8       29.97S
MONTICELLO +   SUNNY     87  69  56 SW13      29.98F
RENSSELAER +   SUNNY     88  70  55 W7        29.98F

$$

LMZ046-743>745-031800-
SOUTHERN LAKE MICHIGAN

STATION/POSITION TIME  TEMP    WIND        PRES    WAVE
                       AIR SEA DIR/SP/G            HT
                 (UTC) (F)     (DEG/KT/KT) (MB)    (FT)
BURNS HARBOR     1600   82     250/  7/  9 1014.9S
MICHIGAN CITY    1600   81     220/  6/  7   N/A
5NW MICH CITY    1600   78 73  250/  4/  6   N/A     1

$$

INZ004-005-014>016-021>024-031800-
NORTH CENTRAL INDIANA

CITY           SKY/WX    TMP DP  RH WIND       PRES   REMARKS
ELKHART        SUNNY     86  68  54 N9        29.97F
GOSHEN         SUNNY     86  67  52 SW12      29.97F
SOUTH BEND     SUNNY     86  68  54 SW10      29.97F

$$

INZ006>009-017-018-025>027-031800-
NORTHEAST INDIANA

CITY           SKY/WX    TMP DP  RH WIND       PRES   REMARKS
ANGOLA *+      SUNNY     88  72  58 SW10      29.98F
FORT WAYNE     MOSUNNY   86  69  56 W12       30.00F

$$

INZ028-029-035-036-043>045-051>053-031800-
WEST CENTRAL INDIANA

CITY           SKY/WX    TMP DP  RH WIND       PRES   REMARKS
CRAWFORDSVL +  SUNNY     85  64  49 W8        30.01F
GREENCASTLE +  SUNNY     86  64  48 S3        30.03S
LAFAYETTE      MOSUNNY   87  66  49 W15G21    29.98F
TERRE HAUTE    MOSUNNY   87  68  52 SW8       30.01F

$$

INZ030>032-037>040-046>048-054>057-064-065-031800-
CENTRAL INDIANA

CITY           SKY/WX    TMP DP  RH WIND       PRES   REMARKS
ANDERSON       MOSUNNY   86  61  42 SW9       30.03F
FRANKFORT +    MOSUNNY   89  70  54 SW8G17    30.03S
GREENWOOD *+   MOSUNNY   86  64  48 SW6       30.03F
INDIANAPOLIS   MOSUNNY   87  66  49 SW8       30.01F
-EAGLE CREEK   MOSUNNY   87  67  51 W8        30.01F
KOKOMO *+      MOSUNNY   88  70  55 W15       30.00F
MT COMFORT *+  MOSUNNY   88  55  33 SW5       30.02F
SHELBYVILLE    MOSUNNY   90  67  46 SW9       30.01F
ZIONSVILLE +   MOSUNNY   87  67  50 SW8       30.03S

$$

INZ033-034-041-042-049-050-058-059-031800-
EAST CENTRAL INDIANA

CITY           SKY/WX    TMP DP  RH WIND       PRES   REMARKS
MUNCIE         MOSUNNY   84  69  60 W8        30.02F

$$

INZ060-061-067>069-081>083-085>088-031800-
SOUTHWEST INDIANA

CITY           SKY/WX    TMP DP  RH WIND       PRES   REMARKS
EVANSVILLE     SUNNY     89  67  47 MISG      30.02F
HUNTINGBURG *+ MOSUNNY   90  68  48 S7        30.02F

$$

INZ062-063-066-070>080-084-089>092-031800-
SOUTH CENTRAL AND SOUTHEAST INDIANA

CITY           SKY/WX    TMP DP  RH WIND       PRES   REMARKS
BLOOMINGTON    MOSUNNY   87  68  52 W8        30.03F
SEYMOUR +      MOSUNNY   91  66  43 S7        30.02F

$$



USA.gov is the U.S. government's official web portal to all federal, state and local government web resources and services.